Hourly Data Report for March 01, 2002

SHERBROOKE A
QUEBEC

45°26'00.000" N
71°41'00.000" W
241.40 m
7028124
71610
YSC

Download Data

Hourly Data (March 2002)
Hourly Data Report for March 1, 2002
TIME
LST
Temp Definition
°C
Dew Point Definition
°C
Rel Hum Definition
%
Precip. Amount Definition
mm

Wind Dir Definition
10's deg

Wind Spd Definition
km/h
Visibility Definition
km
Stn Press Definition
kPa
Hmdx Definition


Wind Chill Definition


Weather Definition


00:00 -11.8 -13.8 85   10 4 15.0 98.91   -14  
01:00 -12.4 -14.0 88   9 4 15.0 98.97   -15  
02:00 -13.4 -14.1 94     0 15.0 99.03      
03:00 -7.1 -10.6 76   20 7 11.3 99.05   -11 Snow
04:00 -7.4 -10.6 78   20 6 15.0 99.08   -11  
05:00 -6.6 -10.9 71   19 9 15.0 99.12   -11  
06:00 -6.6 -10.9 71   19 6 15.0 99.14   -10  
07:00 -7.2 -10.9 75   19 7 15.0 99.21   -11  
08:00 -5.5 -10.6 67   18 19 24.1 99.26   -12 Mostly Cloudy
09:00 -3.9 -10.5 60   21 19 24.1 99.32   -10 Mostly Cloudy
10:00 -2.8 -10.1 57   19 22 24.1 99.36   -9 Mostly Cloudy
11:00 -2.1 -9.7 56   21 13 24.1 99.34   -7 Cloudy
12:00 -1.2 -9.6 53   21 17 24.1 99.31   -6 Cloudy
13:00 -0.8 -8.7 55   19 19 24.1 99.27   -6 Cloudy
14:00 -1.4 -8.0 61   21 19 19.3 99.34   -7 Snow
15:00 -0.7 -8.1 57   21 11 24.1 99.38   -4 Mostly Cloudy
16:00 -0.1 -9.1 51   24 24 24.1 99.48   -6 Mostly Cloudy
17:00 -0.7 -6.8 63   24 20 24.1 99.60   -6 Mostly Cloudy
18:00 -1.7 -6.3 71   21 9 15.0 99.66   -5  
19:00 -2.4 -3.3 94   22 13 0.3 99.79   -7 Snow
20:00 -2.4 -3.2 94   23 11 0.6 99.86   -6 Snow
21:00 -2.1 -4.3 85   25 15 15.0 100.00   -7  
22:00 -2.6 -4.9 84   25 13 15.0 100.10   -7  
23:00 -2.8 -4.8 86   25 11 15.0 100.25   -7 Snow

Notes on Data Quality.

Legend

  • E = Estimated
  • M = Missing
  • NA = Not Available*
  • [empty] = Indicates an unobserved value
Date modified: